Погода в Луге

Россия / Республика Коми     62°47′15″N   50°37′00″E
темп.,
°C
ветер,
м/с
пор.,
м/с
влажн.,
%
обл.,
%
осадки,
мм/ч
давл.,
гПа
погр.,
м
8 августа, пн
пн800:00+18ююз296963 0.0 1015195
03:00+16з289587 0.1 1016215
06:00+18зсз35805 0.0 1017410
09:00+21зсз35476 0.0 10181162
12:00+23зсз453978 0.0 10191693
15:00+23зсз44325 0.0 10202003
18:00+21зсз36447 0.0 1020612
21:00+15з226350 0.0 102128
9 августа, вт
вт900:00+12сз247079 0.0 102379
03:00+12с2467100 0.0 102364
06:00+15с2359100 0.0 1024144
09:00+19ссв2342100 0.0 1024855
12:00+22ссв2133100 0.0 10242181
15:00+22ссв1234100 0.0 10232160
18:00+19в114980 0.0 102313
21:00+15ссв116099 0.0 102311
10 августа, ср
ср1000:00+12ссв236595 0.0 102359
03:00+11ссв2273100 0.0 102338
06:00+14ссв2362100 0.0 1023154
09:00+18всв2447100 0.0 1022636
12:00+18ююв3354100 0.1 1022900
15:00+17вюв2359100 0.1 1021883
18:00+15юв2267100 0.0 1021335
21:00+13зсз1178100 0.0 102011
11 августа, чт
чт1100:00+13зсз137998 0.0 101982
03:00+13сз2380100 0.0 101873
06:00+14сз1371100 0.0 1018118
09:00+18сз3648100 0.0 1018472
12:00+22зсз363470 0.0 10172516
15:00+22з3536100 0.0 10152280
18:00+20зюз484727 0.0 1014598
21:00+17зюз31056100 0.0 1014336
12 августа, пт
пт1200:00+14зюз31093100 0.6 1013433
03:00+14юз31196100 1.0 1012418
06:00+13юз3997100 0.9 1011418
09:00+13зюз41098100 5.8 1009589
12:00+16з498837 0.5 1009855
15:00+20зсз5105630 1.1 10081803
18:00+17зсз49547 0.1 1010915
21:00+14зсз3116480 0.1 1011446